Location: Paris
(48.6709°N, 2.3750°E)
Time: 12:33:46
(UTC+01:00)

ISS - Pass Details

Date: 02 November 2021
Orbit: 417 x 423 km, 51.6° (Epoch: 30 November)

Event Time Altitude Azimuth Distance (km) Brightness Sun altitude
Exits shadow 05:23:47 41° 37° (NE) 620 -2.7 -22.6°
Drops below altitude 10° 05:26:26 10° 76° (ENE) 1,503 0.1 -22.2°
Sets 05:28:34 0° 82° (E) 2,365 1.6 -21.8°
